• In Czech Republic
  • List of Countries
  • For 7 days
  • Water Temperature
  • Satellite Maps
  • Weather Map
  • Weather Widgets
  • user-avatar
    Login

    Hourly Weather Atyrau

    Today, 19 September, Wednesday

    Time Temperature Precipitation Wind Pressure Humidity
    00:00 +17°C° 0 mm 7 mps 762 mmHg 63%
    01:00 +16°C° 0 mm 7 mps 762 mmHg 61%
    02:00 +16°C° 0 mm 7 mps 762 mmHg 58%
    03:00 +16°C° 0 mm 6 mps 762 mmHg 57%
    04:00 +16°C° 0 mm 6 mps 762 mmHg 54%
    05:00 +16°C° 0 mm 6 mps 762 mmHg 52%
    06:00 +16°C° 0 mm 6 mps 762 mmHg 50%
    07:00 +17°C° 0 mm 7 mps 762 mmHg 47%
    08:00 +18°C° 0 mm 8 mps 762 mmHg 45%
    09:00 +20°C° 0 mm 8 mps 762 mmHg 42%
    10:00 +21°C° 0 mm 8 mps 762 mmHg 41%
    11:00 +22°C° 0 mm 9 mps 762 mmHg 40%
    12:00 +22°C° 0 mm 9 mps 761 mmHg 39%
    13:00 +22°C° 0 mm 9 mps 761 mmHg 40%
    14:00 +22°C° 0 mm 9 mps 761 mmHg 40%
    15:00 +21°C° 0 mm 9 mps 761 mmHg 41%
    16:00 +21°C° 0 mm 9 mps 761 mmHg 40%
    17:00 +21°C° 0 mm 9 mps 761 mmHg 40%
    18:00 +21°C° 0 mm 9 mps 761 mmHg 39%
    19:00 +19°C° 0 mm 9 mps 761 mmHg 38%
    20:00 +20°C° 0 mm 8 mps 761 mmHg 36%
    21:00 +18°C° 0 mm 8 mps 761 mmHg 35%
    22:00 +17°C° 0 mm 8 mps 762 mmHg 36%
    23:00 +16°C° 0 mm 7 mps 762 mmHg 37%

    Tomorrow, 20 September, Thursday

    Time Temperature Precipitation Wind Pressure Humidity
    00:00 +16°C° 0 mm 7 mps 762 mmHg 38%
    01:00 +15°C° 0 mm 7 mps 763 mmHg 40%
    02:00 +15°C° 0 mm 6 mps 763 mmHg 41%
    03:00 +14°C° 0 mm 6 mps 763 mmHg 43%
    04:00 +14°C° 0 mm 6 mps 763 mmHg 44%
    05:00 +14°C° 0 mm 7 mps 764 mmHg 45%
    06:00 +14°C° 0 mm 7 mps 764 mmHg 46%
    07:00 +15°C° 0 mm 7 mps 764 mmHg 43%
    08:00 +16°C° 0 mm 8 mps 764 mmHg 40%
    09:00 +18°C° 0 mm 8 mps 764 mmHg 37%
    10:00 +20°C° 0 mm 8 mps 764 mmHg 36%
    11:00 +21°C° 0 mm 8 mps 764 mmHg 35%
    12:00 +22°C° 0 mm 8 mps 764 mmHg 34%
    13:00 +22°C° 0 mm 8 mps 764 mmHg 36%
    14:00 +23°C° 0 mm 7 mps 764 mmHg 38%
    15:00 +23°C° 0 mm 7 mps 763 mmHg 41%
    16:00 +23°C° 0 mm 6 mps 763 mmHg 43%
    17:00 +23°C° 0 mm 5 mps 763 mmHg 45%
    18:00 +23°C° 0 mm 4 mps 763 mmHg 47%
    19:00 +22°C° 0 mm 4 mps 763 mmHg 50%
    20:00 +21°C° 0 mm 3 mps 763 mmHg 52%
    21:00 +21°C° 0 mm 2 mps 763 mmHg 54%
    22:00 +21°C° 0 mm 2 mps 763 mmHg 55%
    23:00 +21°C° 0 mm 3 mps 763 mmHg 56%

    Day after tomorrow, 21 September, Friday

    Time Temperature Precipitation Wind Pressure Humidity
    00:00 +20°C° 0 mm 3 mps 763 mmHg 56%
    01:00 +20°C° 0 mm 4 mps 763 mmHg 57%
    02:00 +20°C° 0 mm 4 mps 762 mmHg 58%
    03:00 +20°C° 0 mm 5 mps 762 mmHg 58%
    04:00 +20°C° 0 mm 5 mps 762 mmHg 58%
    05:00 +20°C° 0 mm 5 mps 762 mmHg 58%
    06:00 +20°C° 0 mm 5 mps 762 mmHg 57%
    07:00 +22°C° 0 mm 6 mps 763 mmHg 53%
    08:00 +23°C° 0 mm 6 mps 763 mmHg 48%
    09:00 +26°C° 0 mm 7 mps 763 mmHg 44%
    10:00 +26°C° 0 mm 6 mps 763 mmHg 43%
    11:00 +27°C° 0 mm 6 mps 763 mmHg 42%
    12:00 +28°C° 0 mm 6 mps 763 mmHg 41%
    13:00 +27°C° 0 mm 6 mps 763 mmHg 42%
    14:00 +27°C° 0 mm 6 mps 763 mmHg 43%
    15:00 +27°C° 0 mm 5 mps 763 mmHg 44%
    16:00 +27°C° 0 mm 5 mps 763 mmHg 45%
    17:00 +26°C° 0 mm 4 mps 764 mmHg 45%
    18:00 +26°C° 0 mm 3 mps 764 mmHg 46%
    19:00 +26°C° 0 mm 3 mps 764 mmHg 47%
    20:00 +25°C° 0 mm 3 mps 765 mmHg 47%
    21:00 +25°C° 0 mm 3 mps 765 mmHg 47%
    22:00 +24°C° 0 mm 3 mps 765 mmHg 49%
    23:00 +22°C° 0 mm 3 mps 766 mmHg 50%

    22 September, Saturday

    Time Temperature Precipitation Wind Pressure Humidity
    00:00 +22°C° 0 mm 3 mps 766 mmHg 52%
    01:00 +21°C° 0 mm 3 mps 766 mmHg 53%
    02:00 +20°C° 0 mm 3 mps 766 mmHg 54%
    03:00 +20°C° 0 mm 3 mps 766 mmHg 55%
    04:00 +19°C° 0 mm 3 mps 767 mmHg 54%
    05:00 +19°C° 0 mm 3 mps 767 mmHg 52%
    06:00 +19°C° 0 mm 3 mps 768 mmHg 51%
    07:00 +20°C° 0 mm 3 mps 768 mmHg 46%
    08:00 +21°C° 0 mm 3 mps 768 mmHg 40%
    09:00 +22°C° 0 mm 3 mps 769 mmHg 35%
    10:00 +24°C° 0 mm 3 mps 769 mmHg 35%
    11:00 +25°C° 0 mm 3 mps 769 mmHg 34%
    12:00 +25°C° 0 mm 2 mps 769 mmHg 33%
    13:00 +26°C° 0 mm 2 mps 769 mmHg 32%
    14:00 +26°C° 0 mm 2 mps 768 mmHg 31%
    15:00 +26°C° 0 mm 2 mps 768 mmHg 30%
    16:00 +25°C° 0 mm 2 mps 769 mmHg 32%
    17:00 +25°C° 0 mm 2 mps 769 mmHg 33%
    18:00 +24°C° 0 mm 2 mps 769 mmHg 35%
    19:00 +23°C° 0 mm 2 mps 769 mmHg 35%
    20:00 +23°C° 0 mm 2 mps 769 mmHg 34%
    21:00 +21°C° 0 mm 2 mps 770 mmHg 34%
    22:00 +21°C° 0 mm 2 mps 770 mmHg 32%
    23:00 +20°C° 0 mm 3 mps 770 mmHg 29%

    23 September, Sunday

    Time Temperature Precipitation Wind Pressure Humidity
    00:00 +20°C° 0 mm 3 mps 770 mmHg 27%
    01:00 +19°C° 0 mm 3 mps 770 mmHg 27%
    02:00 +19°C° 0 mm 3 mps 770 mmHg 27%
    03:00 +18°C° 0 mm 3 mps 770 mmHg 28%
    04:00 +18°C° 0 mm 3 mps 770 mmHg 29%
    05:00 +18°C° 0 mm 3 mps 770 mmHg 30%
    06:00 +18°C° 0 mm 3 mps 770 mmHg 32%
    07:00 +19°C° 0 mm 3 mps 770 mmHg 30%
    08:00 +21°C° 0 mm 3 mps 770 mmHg 28%
    09:00 +24°C° 0 mm 3 mps 770 mmHg 26%
    10:00 +23°C° 0 mm 4 mps 770 mmHg 25%
    11:00 +25°C° 0 mm 4 mps 770 mmHg 24%
    12:00 +26°C° 0 mm 4 mps 769 mmHg 22%
    13:00 +26°C° 0 mm 4 mps 769 mmHg 23%
    14:00 +26°C° 0 mm 4 mps 769 mmHg 23%
    15:00 +26°C° 0 mm 4 mps 768 mmHg 23%
    16:00 +26°C° 0 mm 3 mps 768 mmHg 25%
    17:00 +25°C° 0 mm 3 mps 768 mmHg 27%
    18:00 +24°C° 0 mm 3 mps 768 mmHg 29%
    19:00 +22°C° 0 mm 3 mps 768 mmHg 30%
    20:00 +22°C° 0 mm 3 mps 768 mmHg 32%
    21:00 +22°C° 0 mm 4 mps 768 mmHg 33%
    22:00 +21°C° 0 mm 4 mps 767 mmHg 35%
    23:00 +21°C° 0 mm 4 mps 767 mmHg 37%

    24 September, Monday

    Time Temperature Precipitation Wind Pressure Humidity
    00:00 +21°C° 0 mm 4 mps 767 mmHg 38%
    01:00 +20°C° 0 mm 5 mps 767 mmHg 40%
    02:00 +20°C° 0 mm 5 mps 767 mmHg 41%
    03:00 +20°C° 0 mm 5 mps 766 mmHg 43%
    04:00 +19°C° 0 mm 5 mps 766 mmHg 44%
    05:00 +19°C° 0 mm 5 mps 766 mmHg 45%
    06:00 +19°C° 0 mm 5 mps 767 mmHg 47%
    07:00 +21°C° 0 mm 6 mps 767 mmHg 42%
    08:00 +23°C° 0 mm 6 mps 767 mmHg 36%
    09:00 +24°C° 0 mm 7 mps 767 mmHg 31%
    10:00 +26°C° 0 mm 7 mps 766 mmHg 30%
    11:00 +27°C° 0 mm 7 mps 766 mmHg 28%
    12:00 +27°C° 0 mm 7 mps 766 mmHg 26%
    13:00 +27°C° 0 mm 7 mps 766 mmHg 26%
    14:00 +27°C° 0 mm 7 mps 766 mmHg 26%
    15:00 +27°C° 0 mm 6 mps 765 mmHg 26%
    16:00 +26°C° 0 mm 6 mps 765 mmHg 28%
    17:00 +25°C° 0 mm 5 mps 765 mmHg 29%
    18:00 +23°C° 0 mm 4 mps 764 mmHg 31%
    19:00 +23°C° 0 mm 4 mps 764 mmHg 32%
    20:00 +23°C° 0 mm 5 mps 764 mmHg 32%
    21:00 +23°C° 0 mm 5 mps 764 mmHg 33%
    22:00 +23°C° 0 mm 5 mps 764 mmHg 34%
    23:00 +23°C° 0 mm 6 mps 764 mmHg 35%
    Show more